Regional Weather Roundup
Issued by NWS

Home | Current Version | Previous Version | Text Only | Print | Product List | Glossary Off
Versions: 1 2 3 4 5 6 7 8 9 10 11 12 13 14 15 16 17 18 19 20 21 22 23 24 25 26 27 28 29 30 31 32 33 34 35 36 37 38 39 40 41 42 43 44 45 46 47 48 49 50

000
ASUS45 KBOI 222110
RWRID
WEATHER ROUNDUP FOR IDAHO
NATIONAL WEATHER SERVICE BOISE ID
200 PM MST SAT NOV 22 2014

NOTE: "FAIR" INDICATES FEW OR NO CLOUDS BELOW 12000 FEET
WITH NO SIGNIFICANT WEATHER AND/OR OBSTRUCTIONS TO VISIBILITY

IDZ012-014-222200-
SOUTHWEST IDAHO


CITY           SKY/WX    TMP DP  RH WIND       PRES   REMARKS
BOISE          CLOUDY    44  35  70 NW12      29.80R
CALDWELL       NOT AVBL
MOUNTAIN HOME  CLOUDY    44  44  99 NW18      29.78R
$$

IDZ016-017-222200-
SOUTHCENTRAL IDAHO


CITY           SKY/WX    TMP DP  RH WIND       PRES   REMARKS
BURLEY         LGT RAIN  43  37  79 SW21G30   29.74R
JEROME         CLOUDY    42  35  76 SW20G30   29.75R
TWIN FALLS     LGT RAIN  41  35  79 W28G40    29.79R
$$

IDZ019>023-222200-
SOUTHEAST IDAHO


CITY           SKY/WX    TMP DP  RH WIND       PRES   REMARKS
IDAHO FALLS    CLOUDY    37  34  89 SW25G40   29.62R WCI  25
POCATELLO      PTSUNNY   40  37  89 SW23G30   29.67F WCI  30
REXBURG        CLOUDY    37  33  85 SW17G28   29.60R WCI  27
$$

IDZ006-010-011-018-031-032-222200-
CENTRAL IDAHO MOUNTAINS


CITY           SKY/WX    TMP DP  RH WIND       PRES   REMARKS
MCCALL         MOSUNNY   39  24  55 W6        29.71R WCI  35
HAILEY         PTSUNNY   45  30  57 NW12      29.63R
STANLEY          N/A     35  20  54 NW6       29.70R WCI  30
SALMON         PTSUNNY   43  23  45 E8        29.66R
CHALLIS        PTSUNNY   39  28  64 W10G21    29.67R WCI  32
$$

IDZ002-004-006-007-026-222200-
NORTHERN IDAHO


CITY           SKY/WX    TMP DP  RH WIND       PRES   REMARKS
LEWISTON       CLOUDY    52  29  41 SW6G16    29.73R
LOWELL           N/A     47  41  80 N6        29.72S
COEUR D`ALENE  CLOUDY    39  34  81 W14G21    29.68R WCI  31
MULLAN PASS    CLOUDY    25  23  92 VRB7      29.58R WCI  17
$$



USA.gov is the U.S. government's official web portal to all federal, state and local government web resources and services.